Wardsboro, VT (05355)

4:41 AM EDT on August 28, 2016 (GMT -0400)
2 Miles up a dirt road | | Change Station

Elev 1699 ft 42.98 °N, 72.78 °W | Updated 1 minute ago

Clear
Clear
62.2 °F
Feels Like 62.2 °F
N
0.0
Wind Variable Wind from WSW
Gusts 0.0 mph

Today
High -- | Low -- °F
--% Chance of Precip.
Yesterday
High -- | Low -- °F
Precip. -- in
Pressure 30.22 in
Visibility 9.0 miles
Clouds Clear
Dew Point 58 °F
Humidity 87%
Rainfall 0.00 in
Snow Depth Not available.
6:11 AM 7:31 PM
Waning Crescent, 17% visible
METAR KDDH 280754Z AUTO 00000KT 9SM CLR 15/14 A3023 RMK AO2 SLP231 T01500139 TSNO
Pressure 30.22 in
Visibility 9.0 miles
Clouds Clear
Dew Point 58 °F
Humidity 87%
Rainfall 0.00 in
Snow Depth Not available.
6:11 AM 7:31 PM
Waning Crescent, 17% visible
METAR KDDH 280754Z AUTO 00000KT 9SM CLR 15/14 A3023 RMK AO2 SLP231 T01500139 TSNO

10-Day Weather Forecast

Almanac

Astronomy

Aug. 28, 2016 Rise Set
Actual Time
Civil Twilight
Nautical Twilight
Astronomical Twilight
Moon
Length of Visible Light
Length of Day
Tomorrow will be .
, % of the Moon is Illuminated

Today's Extremes

State Highs State Lows

Community

WunderPhotos

Upload Photos

1,935,540 photos uploaded!

WunderBlog® & News

Nearby

Air Quality

  Air Quality AQ Index Pollutant
Not available.

Snow Depth

Station Depth Elevation

Earthquake Activity

City Distance Mag. Time & Date
Minimum magnitude displayed is 2.5.

Coastal Water Temperatures

Place Temperature

Stations

Nearby Weather Stations

Station Location Temp. Windchill Dew Point Humidity Wind Precip. Elev Updated Type
                   

Watches & Warnings

There are currently no watches in effect.